Tracking 28790 objects as of 19-Apr-2024
HD Live streaming from Space Station
objects crossing your sky now

STARLINK-2282

Track STARLINK-2282 now!
10-day predictions
STARLINK-2282 is classified as:


NORAD ID: 48018
Int'l Code: 2021-024AT
Perigee: 553.4 km
Apogee: 555.4 km
Inclination: 53.1 °
Period: 95.6 minutes
Semi major axis: 6925 km
RCS: Unknown
Launch date: March 24, 2021
Source: United States (US)
Launch site: AIR FORCE EASTERN TEST RANGE (AFETR)
Your satellite tracking list
Your tracking list is empty




NASA's NSSDC Master Catalog

Two Line Element Set (TLE):
1 48018U 21024AT  24109.49490100  .00020938  00000-0  14209-2 0  9993
2 48018  53.0543 180.2229 0001413 106.4667 253.6478 15.06385426170212
Source of the keplerian elements: AFSPC